[[{"header":{"parameterUnit":"m.s-1","parameterCategory":1,"la1":30.2991,"la2":30.254,"lo1":-89.0895,"lo2":-89.0444,"dy":0.0017,"dx":0.0017,"nx":28,"ny":28,"refTime":"2025-08-20T03:00:00:Z","depth":0,"parameterNumber":2,"parameterNumberName":"U-component_of_WINDS"},"data":[0,0,0,0,0,0,0,0,0,0,0,0,0,0,0,0,0,0,0,0,0,0,0,0,0,0,0,0,0,0,0,0,0,0,0,0,0,0,0,0,0,0,0,0,0,0,0,0,0,0,0,0,0,0,0,0,0,0,-1.0189,-1.019,0,-1.0299,-1.03,-1.0302,-1.0308,-1.0307,-1.0305,-1.0304,-1.0422,-1.0427,-1.0431,0,0,0,0,0,0,0,0,0,0,0,0,0,-0.9989,-0.9993,-1.0189,-1.019,-1.0192,-1.0299,-1.0301,-1.0302,-1.0308,-1.0307,-1.0305,-1.0304,-1.0421,-1.0426,-1.0431,0,0,0,0,0,0,0,0,0,0,0,0,0,-1.0085,-0.9994,-1.0189,-1.0207,-1.021,-1.0299,-1.0301,-1.0302,-1.0309,-1.0307,-1.0305,-1.0303,-1.0419,-1.0426,-1.0432,-1.0511,0,0,-1.0452,-1.0455,0,0,0,0,0,0,0,0,-1.008,-1.0093,-1.0203,-1.0206,-1.021,-1.0288,-1.0273,-1.0372,-1.0309,-1.0271,-1.0304,-1.0302,-1.038,-1.0389,-1.0414,-1.0516,-1.0521,-1.0453,-1.0457,-1.0459,-1.0461,0,0,0,0,0,0,0,-1.0073,-1.0088,-1.0233,-1.0205,-1.0209,-1.0212,-1.0224,-1.0292,-1.0335,-1.0275,-1.0275,-1.0288,-1.0381,-1.0408,-1.0417,-1.0523,-1.0452,-1.0458,-1.0462,-1.0465,-1.0696,-1.0698,0,0,0,0,0,0,-1.0062,-1.0082,-1.0229,-1.0236,-1.0138,-1.0217,-1.023,-1.0265,-1.0334,-1.0343,-1.0289,-1.0288,-1.0398,-1.041,-1.0421,-1.0518,-1.0459,-1.0465,-1.0469,-1.0694,-1.0696,-1.0699,0,0,0,0,0,0,-1.0058,-1.0075,-1.0225,-1.0159,-1.0179,-1.0223,-1.0261,-1.0268,-1.0295,-1.0345,-1.0354,-1.0309,-1.0397,-1.0412,-1.0488,-1.0522,-1.0468,-1.0474,-1.0691,-1.0694,-1.0697,-1.0712,0,0,0,0,0,0,-1.0052,-1.0073,-1.0102,-1.016,-1.0182,-1.0288,-1.0264,-1.0271,-1.0305,-1.0304,-1.0366,-1.0374,-1.0396,-1.0478,-1.0495,-1.053,-1.0479,-1.0688,-1.0692,-1.0696,-1.0708,-1.0715,-1.0721,0,0,0,0,0,-1.0045,-1.0103,-1.0104,-1.0122,-1.0219,-1.029,-1.0303,-1.0326,-1.0308,-1.0339,-1.0371,-1.0372,-1.0516,-1.0486,-1.0504,-1.0542,-1.0686,-1.0691,-1.0696,-1.0706,-1.0714,-1.0721,0,0,0,0,0,0,-1.0051,-1.0111,-1.0112,-1.0191,-1.0235,-1.0291,-1.033,-1.0334,-1.0385,-1.0382,-1.041,-1.0424,-1.0499,-1.0529,-1.0494,-1.0622,-1.0599,-1.0608,-1.06,-1.0608,-1.0614,-1.0606,-1.0485,0,0,0,0,0,-1.006,-1.0111,-1.0162,-1.0227,-1.0249,-1.0285,-1.0317,-1.0331,-1.0378,-1.0398,-1.0436,-1.0483,-1.0539,-1.0576,-1.063,-1.0713,-1.0727,-1.0748,-1.0754,-1.0759,-1.0767,-1.0813,-1.0823,-1.0715,-1.0715,-1.0715,0,0,-1.0083,-1.0122,-1.0153,-1.0229,-1.0265,-1.0318,-1.0301,-1.0359,-1.0399,-1.0407,-1.048,-1.051,-1.0566,-1.0645,-1.0682,-1.0672,-1.08,-1.0766,-1.0769,-1.0774,-1.0819,-1.0829,-1.0838,-1.0719,-1.0718,-1.0717,0,0,-1.015,-1.0184,-1.0241,-1.0277,-1.0331,-1.0355,-1.0369,-1.0424,-1.0444,-1.0518,-1.0525,-1.0575,-1.067,-1.0709,-1.0741,-1.0823,-1.0827,-1.0841,-1.0873,-1.0918,-1.0926,-1.0934,-1.0963,-1.0974,-1.0848,-1.0848,-1.0848,0,-1.0171,-1.0249,-1.0271,-1.0328,-1.0362,-1.037,-1.0429,-1.0463,-1.0533,-1.0557,-1.0544,-1.0664,-1.0702,-1.0791,-1.081,-1.0837,-1.0854,-1.0833,-1.0923,-1.0931,-1.0939,-1.0967,-1.0978,-1.0849,-1.0849,-1.0849,-1.0849,0,-1.0273,-1.0328,-1.0368,-1.0432,-1.0471,-1.0529,-1.056,-1.0597,-1.0608,-1.0634,-1.0709,-1.0755,-1.0818,-1.0841,-1.0853,-1.0932,-1.0924,-1.0917,-1.0894,-1.095,-1.0977,-1.0988,-1.0851,-1.085,-1.085,-1.085,0,0,-1.0346,-1.0421,-1.0436,-1.0465,-1.0525,-1.0569,-1.0628,-1.0688,-1.072,-1.0768,-1.0818,-1.0899,-1.0893,-1.0929,-1.0946,-1.0985,-1.1047,-1.0974,-1.0975,-1.0986,-1.1138,-1.1143,-1.1155,-1.105,-1.1052,-1.1054,-1.1134,0,-1.042,-1.0522,-1.0543,-1.0633,-1.0684,-1.0693,-1.0744,-1.0788,-1.0814,-1.0863,-1.0892,-1.0949,-1.0936,-1.0958,-1.0998,-1.1031,-1.1078,-1.1026,-1.1099,-1.1101,-1.1084,-1.1169,-1.1174,-1.1247,-1.1144,-1.1146,-1.1147,0,-1.0519,-1.0567,-1.0661,-1.0714,-1.0737,-1.0782,-1.0839,-1.0885,-1.0935,-1.0952,-1.0992,-1.1004,-1.1068,-1.1042,-1.113,-1.1094,-1.1125,-1.1146,-1.115,-1.1157,-1.1127,-1.1179,-1.1271,-1.1282,-1.1164,-1.1163,-1.1162,0,-1.0563,-1.0652,-1.0719,-1.0745,-1.0808,-1.084,-1.0868,-1.0916,-1.0951,-1.1002,-1.1025,-1.1083,-1.1115,-1.1161,-1.1189,-1.1167,-1.1275,-1.1251,-1.1291,-1.129,-1.1313,-1.1311,-1.1411,-1.1334,-1.1333,-1.1333,-1.1333,0,-1.0643,-1.07,-1.074,-1.0781,-1.0846,-1.0871,-1.0935,-1.0963,-1.1006,-1.1054,-1.1067,-1.1112,-1.1146,-1.1197,-1.122,-1.129,-1.1304,-1.132,-1.1326,-1.1319,-1.1317,-1.134,-1.1335,-1.1336,-1.1336,-1.1335,-1.1334,0,-1.0703,-1.0732,-1.0806,-1.0859,-1.0874,-1.092,-1.0967,-1.1008,-1.1034,-1.1096,-1.1112,-1.1153,-1.1214,-1.1246,-1.1323,-1.1338,-1.1416,-1.1419,-1.1399,-1.1401,-1.1439,-1.1435,-1.1557,-1.1574,-1.1485,-1.1486,-1.1486,0,-1.0752,-1.0796,-1.0853,-1.0885,-1.0914,-1.0966,-1.1001,-1.1028,-1.1064,-1.1124,-1.1159,-1.122,-1.127,-1.1367,-1.1405,-1.1464,-1.1468,-1.1507,-1.1477,-1.1469,-1.1469,-1.1466,-1.147,-1.1512,-1.1513,-1.1514,-1.1514,0,-1.0835,-1.0847,-1.0896,-1.0951,-1.0992,-1.1037,-1.1081,-1.1107,-1.1141,-1.1182,-1.1243,-1.1282,-1.1359,-1.142,-1.1481,-1.1513,-1.152,-1.1523,-1.1535,-1.1529,-1.1515,-1.1523,-1.1413,-1.152,-1.152,-1.1519,-1.1519,-1.1519,-1.0892,-1.0931,-1.0977,-1.1032,-1.1067,-1.1108,-1.115,-1.118,-1.1231,-1.1294,-1.1308,-1.1372,-1.1422,-1.1505,-1.1538,-1.1591,-1.1583,-1.1601,-1.1606,-1.1609,-1.1611,-1.1507,-1.1602,-1.1602,-1.1602,-1.1602,-1.1602,0,-1.0976,-1.1006,-1.1055,-1.1116,-1.1159,-1.116,-1.1209,-1.1246,-1.1302,-1.1346,-1.1395,-1.1465,-1.1524,-1.1567,-1.1628,-1.1661,-1.1666,-1.1676,-1.1674,-1.1681,-1.1614,-1.1597,-1.1671,-1.1671,-1.1671,-1.1671,-1.1671,-1.1671,-1.1024,-1.1091,-1.1108,-1.1193,-1.1223,-1.1285,-1.1313,-1.1351,-1.1387,-1.1464,-1.1512,-1.1539,-1.1584,-1.1648,-1.1702,-1.1713,-1.1735,-1.1745,-1.1757,-1.1693,-1.1686,-1.1679,-1.1663,-1.175,-1.175,-1.182,-1.182,-1.1821]},{"header":{"parameterUnit":"m.s-1","parameterCategory":1,"la1":30.2991,"la2":30.254,"lo1":-89.0895,"lo2":-89.0444,"dy":0.0017,"dx":0.0017,"nx":28,"ny":28,"refTime":"2025-08-20T03:00:00:Z","depth":0,"parameterNumber":3,"parameterNumberName":"V-component_of_WINDS"},"data":[0,0,0,0,0,0,0,0,0,0,0,0,0,0,0,0,0,0,0,0,0,0,0,0,0,0,0,0,0,0,0,0,0,0,0,0,0,0,0,0,0,0,0,0,0,0,0,0,0,0,0,0,0,0,0,0,0,0,1.0358,1.0358,0,1.0329,1.0329,1.0328,1.0321,1.0321,1.0321,1.0321,1.0287,1.0286,1.0285,0,0,0,0,0,0,0,0,0,0,0,0,0,1.0405,1.0404,1.0359,1.0358,1.0358,1.0329,1.0329,1.0328,1.0321,1.0321,1.0321,1.0322,1.0288,1.0286,1.0285,0,0,0,0,0,0,0,0,0,0,0,0,0,1.0381,1.0404,1.0359,1.0351,1.035,1.0329,1.0329,1.0328,1.0321,1.0321,1.0321,1.0322,1.0288,1.0287,1.0285,1.0269,0,0,1.028,1.0279,0,0,0,0,0,0,0,0,1.0382,1.0379,1.0352,1.0351,1.035,1.0329,1.0333,1.0308,1.0321,1.0332,1.0321,1.0322,1.0301,1.0298,1.0292,1.0268,1.0266,1.028,1.0279,1.0278,1.0278,0,0,0,0,0,0,0,1.0384,1.038,1.0347,1.0352,1.035,1.0347,1.0344,1.0328,1.0315,1.0331,1.033,1.0327,1.03,1.0293,1.0291,1.0266,1.028,1.0278,1.0277,1.0277,1.0226,1.0226,0,0,0,0,0,0,1.0387,1.0382,1.0348,1.0346,1.0367,1.0346,1.0343,1.0335,1.0315,1.0312,1.0327,1.0327,1.0296,1.0293,1.029,1.0269,1.0278,1.0277,1.0276,1.0226,1.0226,1.0226,0,0,0,0,0,0,1.0388,1.0384,1.0349,1.0364,1.0359,1.0345,1.0337,1.0335,1.0328,1.0312,1.0309,1.0322,1.0296,1.0292,1.0274,1.0268,1.0276,1.0274,1.0227,1.0226,1.0226,1.0229,0,0,0,0,0,0,1.039,1.0385,1.0379,1.0364,1.0358,1.0335,1.0337,1.0334,1.0326,1.0325,1.0307,1.0305,1.0296,1.0277,1.0273,1.0266,1.0273,1.0227,1.0227,1.0226,1.0229,1.0228,1.0228,0,0,0,0,0,1.0391,1.0381,1.0379,1.0375,1.0351,1.0335,1.0332,1.0323,1.0325,1.0319,1.0309,1.0305,1.027,1.0275,1.0271,1.0263,1.0228,1.0227,1.0226,1.0229,1.0228,1.0228,0,0,0,0,0,0,1.0395,1.0378,1.0377,1.0361,1.035,1.0334,1.0326,1.0323,1.0309,1.0309,1.0299,1.0294,1.0277,1.0268,1.0275,1.0246,1.0248,1.0247,1.0253,1.0252,1.0251,1.0253,1.0272,0,0,0,0,0,1.0394,1.0383,1.0369,1.0356,1.0351,1.0339,1.0332,1.0327,1.0314,1.0308,1.0297,1.0284,1.0269,1.026,1.0246,1.0228,1.0223,1.022,1.022,1.0219,1.0217,1.0206,1.0205,1.0223,1.0223,1.0223,0,0,1.0392,1.0381,1.0375,1.0357,1.0347,1.0335,1.0335,1.0322,1.0313,1.0306,1.0289,1.028,1.0264,1.0246,1.0238,1.0238,1.0212,1.0218,1.0218,1.0216,1.0205,1.0204,1.0202,1.0222,1.0222,1.0222,0,0,1.0381,1.0373,1.0361,1.0352,1.0338,1.033,1.0328,1.0312,1.0307,1.029,1.0284,1.0272,1.0248,1.0237,1.0228,1.0214,1.0209,1.021,1.0205,1.0195,1.0193,1.0192,1.0186,1.0184,1.0208,1.0208,1.0208,0,1.0379,1.0362,1.0355,1.0342,1.0334,1.0329,1.0316,1.0307,1.0289,1.0283,1.0284,1.0254,1.0243,1.0222,1.0219,1.0212,1.0208,1.0211,1.0194,1.0193,1.0191,1.0185,1.0183,1.0208,1.0208,1.0208,1.0208,0,1.036,1.0348,1.034,1.0324,1.0315,1.0302,1.0292,1.0284,1.0279,1.0271,1.0254,1.0241,1.0224,1.0219,1.0214,1.0197,1.0197,1.0197,1.0198,1.019,1.0184,1.0182,1.0208,1.0208,1.0208,1.0208,0,0,1.035,1.0331,1.0328,1.032,1.0305,1.0295,1.0282,1.0267,1.0259,1.0247,1.0234,1.0215,1.0214,1.0204,1.0198,1.0189,1.0177,1.0189,1.0188,1.0186,1.0156,1.0156,1.0154,1.0174,1.0174,1.0174,1.0157,0,1.0337,1.0314,1.0308,1.0288,1.0276,1.0272,1.026,1.0249,1.0241,1.0229,1.022,1.0206,1.0206,1.02,1.0191,1.018,1.017,1.0181,1.0161,1.0161,1.0165,1.0151,1.015,1.0136,1.0155,1.0154,1.0154,0,1.0318,1.0307,1.0286,1.0272,1.0267,1.0257,1.0242,1.0231,1.0218,1.0213,1.0202,1.0197,1.0182,1.0185,1.0163,1.0171,1.0163,1.0156,1.0155,1.0152,1.0156,1.0146,1.0131,1.0128,1.0151,1.0151,1.0151,0,1.0311,1.0291,1.0276,1.027,1.0253,1.0246,1.0239,1.0226,1.0217,1.0204,1.0198,1.0183,1.0174,1.0162,1.0152,1.0156,1.0131,1.0134,1.0125,1.0125,1.0119,1.0119,1.0101,1.0115,1.0116,1.0116,1.0116,0,1.0297,1.0284,1.0273,1.0264,1.0249,1.0242,1.0227,1.0219,1.0208,1.0196,1.0191,1.0179,1.0168,1.0155,1.0147,1.013,1.0126,1.012,1.0118,1.012,1.0121,1.0113,1.0114,1.0115,1.0115,1.0115,1.0115,0,1.0286,1.0279,1.0262,1.0248,1.0244,1.0234,1.0222,1.0212,1.0204,1.0189,1.0185,1.0173,1.0157,1.0147,1.0126,1.0121,1.0102,1.01,1.0106,1.0105,1.0096,1.0097,1.0072,1.0068,1.0086,1.0086,1.0086,0,1.0277,1.0267,1.0253,1.0245,1.0238,1.0226,1.0217,1.0209,1.02,1.0184,1.0176,1.016,1.0147,1.0122,1.011,1.0094,1.0092,1.0084,1.0089,1.0091,1.009,1.009,1.0089,1.0083,1.0083,1.0082,1.0082,0,1.0261,1.0257,1.0246,1.0233,1.0223,1.0212,1.0201,1.0194,1.0184,1.0174,1.0159,1.0149,1.0128,1.0112,1.0095,1.0086,1.0082,1.0081,1.0078,1.0079,1.0083,1.008,1.0103,1.0081,1.0081,1.0082,1.0082,1.0082,1.025,1.0241,1.0229,1.0216,1.0207,1.0197,1.0187,1.0179,1.0166,1.015,1.0146,1.0129,1.0116,1.0093,1.0084,1.007,1.007,1.0066,1.0065,1.0063,1.0063,1.0086,1.0067,1.0067,1.0067,1.0067,1.0067,0,1.0232,1.0225,1.0213,1.0198,1.0188,1.0187,1.0174,1.0165,1.0151,1.0139,1.0127,1.0109,1.0093,1.0081,1.0065,1.0056,1.0053,1.0052,1.0051,1.0049,1.0064,1.0068,1.0054,1.0054,1.0054,1.0054,1.0054,1.0054,1.0222,1.0206,1.0202,1.0182,1.0174,1.0159,1.0152,1.0142,1.0132,1.0113,1.01,1.0093,1.008,1.0063,1.0049,1.0045,1.0039,1.0037,1.0033,1.0047,1.0048,1.0049,1.0053,1.0036,1.0036,1.002,1.0019,1.0019]}]]